User: anonymous   Login
Location: Oshawa
(43.9000°N, 78.8670°W)
Time: 17:56:32
(UTC-04:00)
Language:

Altair - Orbit

View from above orbital plane
View from above orbital plane
View from above satellite
View from above satellite

Ground track
Ground track

The orbit data is extracted from the following two-line orbital elements,

1    50U 60009B   17081.76954847 -.00000051 +00000-0 +33567-3 0  9991
2    50 047.2301 191.8939 0113143 041.0722 319.8520 12.20099828526274
Epoch (UTC): 22 March 2017 18:28:08
Eccentricity: 0.0113143
inclination: 47.2301°
perigee height: 1502 km
apogee height: 1682 km
right ascension of ascending node: 191.8939°
argument of perigee: 41.0722°
revolutions per day: 12.20099828
mean anomaly at epoch: 319.8520°
orbit number at epoch: 52627

The dashed part of the orbit path shows where the satellite is in the earth's shadow,  

DLR